User: anonymous   Login
Location: Eschentzwiller
(47.7125°N, 7.3981°E)
Time: 14:44:21
(UTC+00:00)
Language:

Cosmos 1697 Rocket - Orbit

View from above orbital plane
View from above orbital plane
View from above satellite
View from above satellite

Ground track
Ground track

The orbit data is extracted from the following two-line orbital elements,

1 16182U 85097B   21020.42943487 -.00000306  00000-0 -13038-3 0  9992
2 16182  71.0020 124.9725 0009553 241.6533 185.9336 14.16252665822157
Epoch (UTC): 20 January 2021 10:18:23
Eccentricity: 0.0009553
inclination: 71.0020°
perigee height: 831 km
apogee height: 845 km
right ascension of ascending node: 124.9725°
argument of perigee: 241.6533°
revolutions per day: 14.16252665
mean anomaly at epoch: 185.9336°
orbit number at epoch: 82215

The dashed part of the orbit path shows where the satellite is in the earth's shadow,  

DLR